Interactive Weather Chart

4 Day

Outlook

Weather Updates

Severe Weather for Tasmania

Severe Weather for Tasmania

We would like to apologise for the cancellations and delays to our services over the last few days. The weather we have experienced in Tasmania, and especially in the Furneaux Islands has been quite severe. We understand that the islands depend on the services we...

A Boggy Day in Bridport

A Boggy Day in Bridport

The team at Flinders Island Aviation Services would like to thank everyone for their patience and understanding of the delays to our service over the last few weeks. Tasmania has been subject to high rainfalls, leading to major flooding on the Tasmanian mainland. Unfortunately, the rains have continued in Tasmania today, while the island has enjoyed quite a nice day. We thought this may be a good time to show some of the water that has landed at our airstrip in Bridport.

A Smokey Day For Bass Strait

A Smokey Day For Bass Strait

Our pilots are very experienced in handling the unexpected challenges the weather of Bass Strait is known to throw at us. From strong winds, to rain and storms, and of course the infamous summer sea fogs. Today however, we were surprised by a rarer breed of...

Current Conditions

Flinders Island

METAR YFLI 231930Z AUTO 24020KT 9999 // NCD 11/06 Q1023 RMK
RF00.0/000.0

Launceston

METAR YMLT 231930Z AUTO 30009KT 9999 // OVC053 05/02 Q1022 RMK
RF00.0/000.0

Current Forecasts

Flinders Island

TAF YFLI 231211Z 2314/2402
25020G35KT 9999 FEW025 SCT030
RMK
T 10 10 08 10 Q 1023 1024 1024 1025

Launceston

TAF YMLT 231706Z 2318/2418
32008KT 9999 BKN045
FM240300 VRB05KT 9999 SCT045
FM241100 35005KT 9999 FEW030 SCT040
RMK FM231800 MOD TURB BLW 5000FT TILL240200
T 04 03 07 10 Q 1022 1023 1024 1024

Aviation forecasts shown above are sourced from a third party, and as such Flinders Island Aviation Services cannot be held responsible for the accuracy of the information provided. This information is not intended for use in flight planning.